DAL4926 KBNA-KLGA

Flight info

Callsign DAL4926
Flight time 1h 46m
Altitude 37000
Route KRSTA4 OLSIE IIU Q139 CREEP Q29 WWSHR TEESY Q186 WEVEL ETG MIP4
Aircraft A319/M-SDE3FGHIRWY/LB1

Departure

Time 2026-05-06 20:06
Airport Nashville International Airport (KBNA)

Arrival

Time 2026-05-06 21:53
Airport LaGuardia Airport (KLGA)
Time Latitude Longitude Altitude Speed Heading
2026-05-06 19:41 36.13304 -86.67270 569 ft 0 kts 133°
2026-05-06 19:48 36.13314 -86.67284 575 ft 2 kts 133°
2026-05-06 19:48 36.13325 -86.67299 572 ft 2 kts 110°
2026-05-06 19:48 36.13327 -86.67319 576 ft 2 kts 69°
2026-05-06 19:48 36.13320 -86.67337 571 ft 2 kts 56°
2026-05-06 19:49 36.13311 -86.67352 570 ft 0 kts 31°
2026-05-06 19:54 36.13303 -86.67340 570 ft 4 kts 185°
2026-05-06 19:55 36.13319 -86.67341 573 ft 2 kts 193°
2026-05-06 19:56 36.13318 -86.67341 574 ft 1 kts 193°
2026-05-06 19:56 36.13287 -86.67352 574 ft 8 kts 195°
2026-05-06 19:56 36.13221 -86.67365 572 ft 16 kts 186°
2026-05-06 19:56 36.13157 -86.67373 572 ft 9 kts 186°
2026-05-06 19:57 36.13096 -86.67381 569 ft 9 kts 186°
2026-05-06 19:57 36.13028 -86.67371 572 ft 12 kts 161°
2026-05-06 19:57 36.12951 -86.67303 569 ft 16 kts 140°
2026-05-06 19:57 36.12847 -86.67276 573 ft 19 kts 218°
2026-05-06 19:58 36.12750 -86.67394 573 ft 21 kts 224°
2026-05-06 19:58 36.12622 -86.67495 579 ft 24 kts 210°
2026-05-06 19:58 36.12501 -86.67622 582 ft 23 kts 221°
2026-05-06 19:58 36.12359 -86.67708 579 ft 23 kts 198°
2026-05-06 19:59 36.12205 -86.67771 580 ft 23 kts 198°
2026-05-06 19:59 36.12084 -86.67820 578 ft 18 kts 198°
2026-05-06 19:59 36.11962 -86.67870 578 ft 19 kts 198°
2026-05-06 19:59 36.11844 -86.67919 579 ft 18 kts 196°
2026-05-06 20:00 36.11721 -86.67968 579 ft 19 kts 197°
2026-05-06 20:00 36.11598 -86.68018 580 ft 19 kts 198°
2026-05-06 20:00 36.11474 -86.68069 580 ft 19 kts 198°
2026-05-06 20:00 36.11347 -86.68120 580 ft 19 kts 198°
2026-05-06 20:01 36.11222 -86.68171 581 ft 19 kts 198°
2026-05-06 20:01 36.11102 -86.68263 577 ft 22 kts 220°
2026-05-06 20:01 36.10984 -86.68386 573 ft 19 kts 217°
2026-05-06 20:01 36.10873 -86.68438 571 ft 18 kts 198°
2026-05-06 20:02 36.10757 -86.68484 572 ft 18 kts 198°
2026-05-06 20:02 36.10638 -86.68531 572 ft 18 kts 198°
2026-05-06 20:02 36.10521 -86.68579 575 ft 17 kts 198°
2026-05-06 20:02 36.10418 -86.68619 578 ft 15 kts 196°
2026-05-06 20:03 36.10334 -86.68660 580 ft 9 kts 218°
2026-05-06 20:03 36.10328 -86.68670 578 ft 0 kts 234°
2026-05-06 20:04 36.10322 -86.68687 578 ft 6 kts 253°
2026-05-06 20:04 36.10341 -86.68764 579 ft 14 kts 308°
2026-05-06 20:05 36.10386 -86.68777 575 ft 0 kts 15°
2026-05-06 20:05 36.10569 -86.68703 574 ft 69 kts 18°
2026-05-06 20:05 36.11256 -86.68430 575 ft 136 kts 18°
2026-05-06 20:06 36.12240 -86.68024 1006 ft 150 kts 14°
2026-05-06 20:06 36.13251 -86.67638 1699 ft 155 kts 15°
2026-05-06 20:06 36.14276 -86.67236 2412 ft 156 kts 13°
2026-05-06 20:06 36.15379 -86.66804 2823 ft 177 kts 14°
2026-05-06 20:07 36.16632 -86.66314 3198 ft 200 kts 13°
2026-05-06 20:07 36.18048 -86.65760 3556 ft 226 kts 13°
2026-05-06 20:07 36.19635 -86.65134 4050 ft 251 kts 13°
2026-05-06 20:07 36.21378 -86.64442 4673 ft 272 kts 14°
2026-05-06 20:08 36.23204 -86.63703 5527 ft 281 kts 13°
2026-05-06 20:08 36.25081 -86.62937 6456 ft 287 kts 12°
2026-05-06 20:08 36.26991 -86.62156 7364 ft 292 kts 11°
2026-05-06 20:08 36.28936 -86.61361 8302 ft 297 kts 11°
2026-05-06 20:09 36.30903 -86.60514 9262 ft 302 kts 12°
2026-05-06 20:09 36.32885 -86.59583 10168 ft 308 kts 13°
2026-05-06 20:09 36.34963 -86.58581 10527 ft 333 kts 14°
2026-05-06 20:09 36.37194 -86.57499 10897 ft 354 kts 14°
2026-05-06 20:10 36.39529 -86.56359 11515 ft 365 kts 14°
2026-05-06 20:10 36.41912 -86.55194 12243 ft 372 kts 14°
2026-05-06 20:10 36.44344 -86.54007 12981 ft 379 kts 14°
2026-05-06 20:10 36.46828 -86.52802 13670 ft 388 kts 13°
2026-05-06 20:11 36.49363 -86.51582 14293 ft 395 kts 13°
2026-05-06 20:11 36.51947 -86.50339 14952 ft 400 kts 13°
2026-05-06 20:11 36.54559 -86.49081 15628 ft 405 kts 12°
2026-05-06 20:11 36.57160 -86.47827 16277 ft 409 kts 12°
2026-05-06 20:12 36.59859 -86.46518 16958 ft 413 kts 12°
2026-05-06 20:12 36.62546 -86.45169 17633 ft 418 kts 12°
2026-05-06 20:12 36.65253 -86.43778 18304 ft 423 kts 12°
2026-05-06 20:12 36.67983 -86.42359 18878 ft 427 kts 12°
2026-05-06 20:13 36.70736 -86.40925 19451 ft 432 kts 13°
2026-05-06 20:13 36.73523 -86.39444 20001 ft 439 kts 15°
2026-05-06 20:13 36.76305 -86.37802 20582 ft 446 kts 17°
2026-05-06 20:13 36.79082 -86.36021 21172 ft 451 kts 19°
2026-05-06 20:14 36.81861 -86.34156 21754 ft 456 kts 19°
2026-05-06 20:14 36.84659 -86.32254 22325 ft 460 kts 19°
2026-05-06 20:14 36.87483 -86.30348 22884 ft 463 kts 19°
2026-05-06 20:14 36.90337 -86.28453 23424 ft 466 kts 18°
2026-05-06 20:15 36.93214 -86.26572 23887 ft 469 kts 18°
2026-05-06 20:15 36.96132 -86.24685 24273 ft 475 kts 17°
2026-05-06 20:15 36.99086 -86.22783 24647 ft 480 kts 17°
2026-05-06 20:15 37.02070 -86.20858 25042 ft 484 kts 18°
2026-05-06 20:16 37.05072 -86.18913 25466 ft 488 kts 18°
2026-05-06 20:16 37.08095 -86.16948 25852 ft 491 kts 18°
2026-05-06 20:16 37.11129 -86.14967 26260 ft 494 kts 18°
2026-05-06 20:16 37.14190 -86.12964 26650 ft 498 kts 18°
2026-05-06 20:17 37.17267 -86.10950 27063 ft 501 kts 17°
2026-05-06 20:17 37.20367 -86.08920 27438 ft 505 kts 17°
2026-05-06 20:17 37.23491 -86.06881 27813 ft 507 kts 17°
2026-05-06 20:17 37.26659 -86.04935 28176 ft 507 kts 14°
2026-05-06 20:18 37.29880 -86.03100 28524 ft 509 kts 13°
2026-05-06 20:18 37.33132 -86.01341 28887 ft 510 kts 12°
2026-05-06 20:18 37.36412 -85.99598 29242 ft 513 kts 12°
2026-05-06 20:18 37.39713 -85.97829 29602 ft 517 kts 12°
2026-05-06 20:19 37.43027 -85.96017 29986 ft 522 kts 13°
2026-05-06 20:19 37.46365 -85.94153 30245 ft 527 kts 13°
2026-05-06 20:19 37.49712 -85.92250 30549 ft 529 kts 13°
2026-05-06 20:19 37.53071 -85.90328 30859 ft 531 kts 13°
2026-05-06 20:20 37.56442 -85.88404 31163 ft 533 kts 13°
2026-05-06 20:20 37.59825 -85.86480 31475 ft 534 kts 12°
2026-05-06 20:20 37.63210 -85.84561 31910 ft 533 kts 12°
2026-05-06 20:20 37.65449 -85.83292 32276 ft 531 kts 12°
2026-05-06 20:21 37.68814 -85.81389 32717 ft 530 kts 11°
2026-05-06 20:21 37.72173 -85.79490 33161 ft 528 kts 11°
2026-05-06 20:21 37.75528 -85.77595 33585 ft 527 kts 11°
2026-05-06 20:21 37.78870 -85.75705 34007 ft 525 kts 11°
2026-05-06 20:22 37.82199 -85.73818 34367 ft 524 kts 10°
2026-05-06 20:22 37.85524 -85.71928 34748 ft 523 kts 10°
2026-05-06 20:22 37.88838 -85.70041 35156 ft 522 kts 10°
2026-05-06 20:22 37.92158 -85.68151 35428 ft 523 kts
2026-05-06 20:23 37.95475 -85.66263 35746 ft 523 kts
2026-05-06 20:23 37.98793 -85.64364 36092 ft 522 kts
2026-05-06 20:23 38.02094 -85.62469 36449 ft 520 kts
2026-05-06 20:23 38.05385 -85.60577 36808 ft 519 kts
2026-05-06 20:24 38.08671 -85.58692 36983 ft 518 kts
2026-05-06 20:24 38.11948 -85.56771 37055 ft 520 kts 10°
2026-05-06 20:24 38.18430 -85.52527 37026 ft 528 kts 14°
2026-05-06 20:25 38.24857 -85.47967 37022 ft 529 kts 14°
2026-05-06 20:25 38.31296 -85.43439 37019 ft 527 kts 13°
2026-05-06 20:26 38.37745 -85.39046 37014 ft 524 kts 13°
2026-05-06 20:26 38.44188 -85.34690 37003 ft 524 kts 13°
2026-05-06 20:27 38.50627 -85.30302 37008 ft 525 kts 13°
2026-05-06 20:27 38.57059 -85.25870 37055 ft 526 kts 13°
2026-05-06 20:28 38.63498 -85.21421 36998 ft 526 kts 13°
2026-05-06 20:28 38.69938 -85.16971 36991 ft 527 kts 13°
2026-05-06 20:29 38.76389 -85.12514 36992 ft 527 kts 13°
2026-05-06 20:29 38.82854 -85.08037 37019 ft 528 kts 13°
2026-05-06 20:30 38.92550 -85.01298 37009 ft 528 kts 13°
2026-05-06 20:31 38.99014 -84.96794 37017 ft 528 kts 13°
2026-05-06 20:31 39.05467 -84.92286 37016 ft 528 kts 13°
2026-05-06 20:32 39.11914 -84.87771 37007 ft 527 kts 13°
2026-05-06 20:32 39.18354 -84.83264 37013 ft 527 kts 13°
2026-05-06 20:33 39.24801 -84.78741 37064 ft 528 kts 13°
2026-05-06 20:33 39.31220 -84.74207 37001 ft 525 kts 13°
2026-05-06 20:34 39.37634 -84.69688 36998 ft 525 kts 13°
2026-05-06 20:34 39.44054 -84.65163 36989 ft 526 kts 13°
2026-05-06 20:35 39.50472 -84.60616 37052 ft 526 kts 13°
2026-05-06 20:35 39.56892 -84.56058 37049 ft 526 kts 13°
2026-05-06 20:36 39.63304 -84.51488 37042 ft 526 kts 13°
2026-05-06 20:36 39.69708 -84.46913 37033 ft 525 kts 13°
2026-05-06 20:37 39.76088 -84.42353 37003 ft 523 kts 13°
2026-05-06 20:37 39.82468 -84.37788 37000 ft 524 kts 13°
2026-05-06 20:38 39.88855 -84.33203 37014 ft 525 kts 13°
2026-05-06 20:38 39.91987 -84.30629 37057 ft 542 kts 23°
2026-05-06 20:38 39.94863 -84.27435 37037 ft 559 kts 32°
2026-05-06 20:39 40.00468 -84.20312 37036 ft 559 kts 32°
2026-05-06 20:39 40.06004 -84.13285 37034 ft 559 kts 32°
2026-05-06 20:40 40.11578 -84.06218 37034 ft 558 kts 32°
2026-05-06 20:40 40.17126 -83.99160 36993 ft 556 kts 32°
2026-05-06 20:41 40.22664 -83.92102 37003 ft 556 kts 32°
2026-05-06 20:41 40.28200 -83.85026 37007 ft 556 kts 32°
2026-05-06 20:42 40.33733 -83.77937 37008 ft 555 kts 33°
2026-05-06 20:42 40.39231 -83.70877 36997 ft 553 kts 33°
2026-05-06 20:43 40.44724 -83.63812 36995 ft 553 kts 33°
2026-05-06 20:43 40.50221 -83.56721 36993 ft 554 kts 33°
2026-05-06 20:44 40.55710 -83.49611 36964 ft 554 kts 33°
2026-05-06 20:44 40.61205 -83.42482 36988 ft 554 kts 33°
2026-05-06 20:45 40.66696 -83.35350 37003 ft 554 kts 33°
2026-05-06 20:45 40.71918 -83.27751 37072 ft 568 kts 43°
2026-05-06 20:46 40.76734 -83.19526 36971 ft 565 kts 43°
2026-05-06 20:46 40.81538 -83.11329 36953 ft 565 kts 43°
2026-05-06 20:47 40.86353 -83.03132 36969 ft 565 kts 43°
2026-05-06 20:47 40.91156 -82.94908 36974 ft 566 kts 43°
2026-05-06 20:48 40.95957 -82.86661 37015 ft 566 kts 43°
2026-05-06 20:48 41.00754 -82.78403 37009 ft 566 kts 43°
2026-05-06 20:49 41.05545 -82.70138 36978 ft 565 kts 43°
2026-05-06 20:49 41.10319 -82.61870 36992 ft 565 kts 43°
2026-05-06 20:50 41.14875 -82.53349 36944 ft 572 kts 54°
2026-05-06 20:50 41.18640 -82.44035 36955 ft 573 kts 55°
2026-05-06 20:51 41.22418 -82.34711 36950 ft 574 kts 55°
2026-05-06 20:51 41.26284 -82.25139 36965 ft 575 kts 55°
2026-05-06 20:52 41.29963 -82.15975 37012 ft 575 kts 56°
2026-05-06 20:52 41.33295 -82.06251 37005 ft 583 kts 70°
2026-05-06 20:53 41.34749 -81.95620 36981 ft 586 kts 88°
2026-05-06 20:53 41.35246 -81.84808 36978 ft 586 kts 87°
2026-05-06 20:54 41.35756 -81.73979 36975 ft 586 kts 87°
2026-05-06 20:54 41.36260 -81.63148 36964 ft 586 kts 87°
2026-05-06 20:55 41.36746 -81.52321 36978 ft 586 kts 87°
2026-05-06 20:55 41.37220 -81.41480 36981 ft 586 kts 88°
2026-05-06 20:56 41.37682 -81.30648 36981 ft 586 kts 88°
2026-05-06 20:56 41.38131 -81.19828 36966 ft 585 kts 88°
2026-05-06 20:57 41.38572 -81.08998 36972 ft 585 kts 88°
2026-05-06 20:57 41.39003 -80.98185 36967 ft 585 kts 88°
2026-05-06 20:58 41.39429 -80.87357 36955 ft 585 kts 88°
2026-05-06 20:58 41.39845 -80.76537 36975 ft 585 kts 88°
2026-05-06 20:59 41.40242 -80.65725 36995 ft 585 kts 88°
2026-05-06 20:59 41.40633 -80.54912 36987 ft 584 kts 88°
2026-05-06 21:00 41.41018 -80.44109 36969 ft 584 kts 88°
2026-05-06 21:00 41.41389 -80.33311 36980 ft 584 kts 88°
2026-05-06 21:01 41.41749 -80.22504 36990 ft 584 kts 88°
2026-05-06 21:01 41.42006 -80.11699 36954 ft 583 kts 94°
2026-05-06 21:02 41.41132 -80.01019 36963 ft 579 kts 101°
2026-05-06 21:02 41.40269 -79.92182 36970 ft 579 kts 101°
2026-05-06 21:03 41.39230 -79.81539 36958 ft 579 kts 101°
2026-05-06 21:03 41.38183 -79.70905 36935 ft 579 kts 101°
2026-05-06 21:04 41.37119 -79.60292 36947 ft 578 kts 101°
2026-05-06 21:04 41.36045 -79.49680 36939 ft 578 kts 101°
2026-05-06 21:05 41.34969 -79.39077 36915 ft 578 kts 101°
2026-05-06 21:05 41.33884 -79.28503 36921 ft 577 kts 101°
2026-05-06 21:06 41.32788 -79.17920 36913 ft 577 kts 101°
2026-05-06 21:06 41.31679 -79.07358 36903 ft 576 kts 101°
2026-05-06 21:07 41.30561 -78.96807 36888 ft 576 kts 101°
2026-05-06 21:07 41.29434 -78.86265 36905 ft 575 kts 101°
2026-05-06 21:08 41.28306 -78.75741 36905 ft 575 kts 101°
2026-05-06 21:08 41.27170 -78.65215 36852 ft 575 kts 101°
2026-05-06 21:09 41.26019 -78.54707 36886 ft 574 kts 102°
2026-05-06 21:09 41.24853 -78.44213 36912 ft 574 kts 102°
2026-05-06 21:10 41.23684 -78.33721 36913 ft 574 kts 102°
2026-05-06 21:10 41.22506 -78.23248 36907 ft 573 kts 102°
2026-05-06 21:11 41.21322 -78.12787 36896 ft 572 kts 102°
2026-05-06 21:11 41.20060 -78.02353 36889 ft 572 kts 103°
2026-05-06 21:12 41.18739 -77.91936 36860 ft 572 kts 103°
2026-05-06 21:12 41.17416 -77.81544 36872 ft 571 kts 103°
2026-05-06 21:13 41.16098 -77.71154 36867 ft 571 kts 103°
2026-05-06 21:13 41.14784 -77.60770 36864 ft 570 kts 103°
2026-05-06 21:14 41.13461 -77.50394 36838 ft 570 kts 103°
2026-05-06 21:14 41.12121 -77.40021 36845 ft 571 kts 103°
2026-05-06 21:15 41.10772 -77.29651 36842 ft 570 kts 103°
2026-05-06 21:15 41.09411 -77.19292 36826 ft 570 kts 103°
2026-05-06 21:16 41.08044 -77.08940 36844 ft 570 kts 103°
2026-05-06 21:16 41.06663 -76.98603 36852 ft 570 kts 103°
2026-05-06 21:17 41.05281 -76.88259 36852 ft 570 kts 103°
2026-05-06 21:17 41.03894 -76.77931 36814 ft 569 kts 103°
2026-05-06 21:18 41.02464 -76.67621 36814 ft 568 kts 107°
2026-05-06 21:18 41.00221 -76.57668 36806 ft 563 kts 113°
2026-05-06 21:19 40.97838 -76.47790 36778 ft 563 kts 113°
2026-05-06 21:19 40.95450 -76.37889 36836 ft 567 kts 112°
2026-05-06 21:20 40.93050 -76.27954 36855 ft 567 kts 113°
2026-05-06 21:20 40.90643 -76.18036 36833 ft 567 kts 113°
2026-05-06 21:20 40.89433 -76.13084 36517 ft 566 kts 113°
2026-05-06 21:21 40.88212 -76.08106 35366 ft 576 kts 113°
2026-05-06 21:21 40.86959 -76.03026 34272 ft 585 kts 113°
2026-05-06 21:21 40.85705 -75.97927 33550 ft 582 kts 113°
2026-05-06 21:21 40.84454 -75.92841 32583 ft 583 kts 113°
2026-05-06 21:22 40.83201 -75.87751 31672 ft 582 kts 113°
2026-05-06 21:22 40.81948 -75.82673 30766 ft 581 kts 113°
2026-05-06 21:22 40.80702 -75.77632 30044 ft 575 kts 113°
2026-05-06 21:22 40.79470 -75.72653 28961 ft 566 kts 113°
2026-05-06 21:23 40.78257 -75.67758 27760 ft 557 kts 113°
2026-05-06 21:23 40.77058 -75.62944 26620 ft 547 kts 113°
2026-05-06 21:23 40.75880 -75.58230 25830 ft 533 kts 113°
2026-05-06 21:23 40.74740 -75.53659 25199 ft 517 kts 113°
2026-05-06 21:24 40.73629 -75.49219 24562 ft 503 kts 113°
2026-05-06 21:24 40.72552 -75.44892 23940 ft 491 kts 112°
2026-05-06 21:24 40.71661 -75.41004 23373 ft 483 kts 110°
2026-05-06 21:24 40.70792 -75.36781 22791 ft 471 kts 108°
2026-05-06 21:25 40.70004 -75.32648 22249 ft 459 kts 107°
2026-05-06 21:25 40.69256 -75.28609 21758 ft 451 kts 108°
2026-05-06 21:25 40.68509 -75.24622 21260 ft 446 kts 108°
2026-05-06 21:25 40.67745 -75.20689 20783 ft 439 kts 109°
2026-05-06 21:26 40.66714 -75.16971 20310 ft 427 kts 121°
2026-05-06 21:26 40.65291 -75.13598 19831 ft 417 kts 130°
2026-05-06 21:26 40.63560 -75.10611 19359 ft 404 kts 139°
2026-05-06 21:26 40.61706 -75.07981 19185 ft 381 kts 141°
2026-05-06 21:27 40.59941 -75.05457 18778 ft 369 kts 140°
2026-05-06 21:27 40.58229 -75.02998 18295 ft 361 kts 140°
2026-05-06 21:27 40.56752 -75.00321 17699 ft 366 kts 123°
2026-05-06 21:27 40.55753 -74.97237 17043 ft 366 kts 116°
2026-05-06 21:28 40.54828 -74.94127 16433 ft 363 kts 117°
2026-05-06 21:28 40.53913 -74.91048 15856 ft 359 kts 117°
2026-05-06 21:28 40.53008 -74.88009 15310 ft 356 kts 117°
2026-05-06 21:28 40.52105 -74.84991 14534 ft 358 kts 118°
2026-05-06 21:29 40.51162 -74.81892 13400 ft 371 kts 118°
2026-05-06 21:29 40.50191 -74.78694 12273 ft 378 kts 117°
2026-05-06 21:29 40.49243 -74.75522 11895 ft 362 kts 117°
2026-05-06 21:29 40.48154 -74.72710 11770 ft 329 kts 134°
2026-05-06 21:30 40.46670 -74.70626 11636 ft 297 kts 151°
2026-05-06 21:30 40.45006 -74.69290 11517 ft 266 kts 167°
2026-05-06 21:30 40.43362 -74.68612 11403 ft 238 kts 181°
2026-05-06 21:30 40.41744 -74.68433 10762 ft 235 kts 193°
2026-05-06 21:31 40.40095 -74.68770 10211 ft 249 kts 204°
2026-05-06 21:31 40.38460 -74.69606 10056 ft 254 kts 214°
2026-05-06 21:31 40.37003 -74.70886 10019 ft 251 kts 225°
2026-05-06 21:31 40.35819 -74.72539 10026 ft 247 kts 237°
2026-05-06 21:32 40.34966 -74.74483 10020 ft 246 kts 248°
2026-05-06 21:32 40.34345 -74.78862 10021 ft 249 kts 269°
2026-05-06 21:32 40.34607 -74.81117 10027 ft 253 kts 279°
2026-05-06 21:33 40.35128 -74.83333 10022 ft 255 kts 283°
2026-05-06 21:33 40.35750 -74.85519 10025 ft 255 kts 285°
2026-05-06 21:33 40.36399 -74.87674 10026 ft 255 kts 285°
2026-05-06 21:33 40.37054 -74.89842 10029 ft 256 kts 285°
2026-05-06 21:34 40.37703 -74.92018 10026 ft 256 kts 285°
2026-05-06 21:34 40.38349 -74.94197 10024 ft 256 kts 285°
2026-05-06 21:34 40.39155 -74.96307 10025 ft 262 kts 295°
2026-05-06 21:34 40.40318 -74.98187 10012 ft 271 kts 308°
2026-05-06 21:35 40.41852 -74.99699 10026 ft 282 kts 322°
2026-05-06 21:35 40.43674 -75.00658 10021 ft 282 kts 337°
2026-05-06 21:35 40.45643 -75.00963 10028 ft 290 kts 352°
2026-05-06 21:35 40.47670 -75.00564 10026 ft 301 kts
2026-05-06 21:36 40.49613 -74.99424 10020 ft 312 kts 26°
2026-05-06 21:36 40.51280 -74.97568 10018 ft 319 kts 45°
2026-05-06 21:36 40.52493 -74.95111 10012 ft 323 kts 65°
2026-05-06 21:36 40.53110 -74.92284 10011 ft 322 kts 85°
2026-05-06 21:37 40.53089 -74.89366 9918 ft 319 kts 103°
2026-05-06 21:37 40.52535 -74.86593 9686 ft 309 kts 114°
2026-05-06 21:37 40.51827 -74.83955 9557 ft 305 kts 117°
2026-05-06 21:37 40.51059 -74.81363 9425 ft 303 kts 118°
2026-05-06 21:38 40.50279 -74.78803 9290 ft 302 kts 118°
2026-05-06 21:38 40.49501 -74.76245 9161 ft 301 kts 118°
2026-05-06 21:38 40.48732 -74.73693 9024 ft 299 kts 118°
2026-05-06 21:38 40.47962 -74.71158 8903 ft 299 kts 118°
2026-05-06 21:39 40.47189 -74.68632 8775 ft 297 kts 118°
2026-05-06 21:39 40.46419 -74.66112 8648 ft 297 kts 117°
2026-05-06 21:39 40.45657 -74.63595 8524 ft 297 kts 117°
2026-05-06 21:39 40.44901 -74.61078 8395 ft 296 kts 117°
2026-05-06 21:40 40.44145 -74.58569 8269 ft 295 kts 117°
2026-05-06 21:40 40.43537 -74.55892 8149 ft 317 kts 103°
2026-05-06 21:40 40.43422 -74.52970 8024 ft 324 kts 87°
2026-05-06 21:40 40.43863 -74.50068 7900 ft 325 kts 71°
2026-05-06 21:41 40.44626 -74.47283 7784 ft 324 kts 69°
2026-05-06 21:41 40.45384 -74.44509 7661 ft 323 kts 69°
2026-05-06 21:41 40.46134 -74.41729 7538 ft 323 kts 70°
2026-05-06 21:41 40.46877 -74.38950 7426 ft 323 kts 70°
2026-05-06 21:42 40.47617 -74.36173 7326 ft 321 kts 70°
2026-05-06 21:42 40.48355 -74.33412 7157 ft 320 kts 70°
2026-05-06 21:42 40.49092 -74.30666 6981 ft 320 kts 70°
2026-05-06 21:42 40.49831 -74.27911 6783 ft 319 kts 70°
2026-05-06 21:43 40.50565 -74.25167 6597 ft 317 kts 69°
2026-05-06 21:43 40.51294 -74.22441 6411 ft 316 kts 70°
2026-05-06 21:43 40.52022 -74.19719 6226 ft 315 kts 69°
2026-05-06 21:43 40.52501 -74.17925 6083 ft 311 kts 70°
2026-05-06 21:44 40.53212 -74.15254 5904 ft 307 kts 69°
2026-05-06 21:44 40.53916 -74.12606 5718 ft 308 kts 69°
2026-05-06 21:44 40.54627 -74.09937 5542 ft 309 kts 69°
2026-05-06 21:44 40.55565 -74.07376 5355 ft 306 kts 53°
2026-05-06 21:45 40.56930 -74.05286 5186 ft 298 kts 37°
2026-05-06 21:45 40.58587 -74.03716 5008 ft 293 kts 27°
2026-05-06 21:45 40.60304 -74.02269 4827 ft 292 kts 27°
2026-05-06 21:45 40.62078 -74.01014 4648 ft 286 kts 15°
2026-05-06 21:46 40.63979 -74.00415 4448 ft 277 kts 359°
2026-05-06 21:46 40.65850 -74.00468 4275 ft 264 kts 345°
2026-05-06 21:46 40.67682 -74.00798 4102 ft 262 kts 345°
2026-05-06 21:46 40.69420 -74.01099 3972 ft 249 kts 345°
2026-05-06 21:47 40.71104 -74.01383 3837 ft 239 kts 345°
2026-05-06 21:47 40.72715 -74.01653 3701 ft 229 kts 345°
2026-05-06 21:47 40.74274 -74.01920 3530 ft 222 kts 345°
2026-05-06 21:47 40.75782 -74.02179 3386 ft 214 kts 343°
2026-05-06 21:48 40.77221 -74.02421 3302 ft 201 kts 345°
2026-05-06 21:48 40.78578 -74.02654 3185 ft 193 kts 344°
2026-05-06 21:48 40.79876 -74.02880 3080 ft 182 kts 343°
2026-05-06 21:48 40.81055 -74.03078 3000 ft 159 kts 343°
2026-05-06 21:49 40.82116 -74.03109 2915 ft 152 kts
2026-05-06 21:49 40.83084 -74.02498 2831 ft 160 kts 33°
2026-05-06 21:49 40.83711 -74.01282 2746 ft 164 kts 70°
2026-05-06 21:49 40.83784 -73.99816 2366 ft 158 kts 110°
2026-05-06 21:50 40.83332 -73.98575 2036 ft 145 kts 135°
2026-05-06 21:50 40.82805 -73.97460 1770 ft 141 kts 131°
2026-05-06 21:50 40.82286 -73.96368 1582 ft 140 kts 133°
2026-05-06 21:50 40.81769 -73.95280 1379 ft 140 kts 131°
2026-05-06 21:51 40.81259 -73.94206 1190 ft 137 kts 130°
2026-05-06 21:51 40.80755 -73.93149 988 ft 135 kts 129°
2026-05-06 21:51 40.80254 -73.92098 806 ft 135 kts 128°
2026-05-06 21:51 40.79759 -73.91058 624 ft 133 kts 128°
2026-05-06 21:52 40.79266 -73.90030 448 ft 132 kts 129°
2026-05-06 21:52 40.78783 -73.89000 259 ft 132 kts 130°
2026-05-06 21:52 40.78294 -73.87984 61 ft 130 kts 127°
2026-05-06 21:52 40.77851 -73.87062 15 ft 101 kts 121°
2026-05-06 21:53 40.77557 -73.86447 13 ft 43 kts 124°
2026-05-06 21:53 40.77379 -73.86274 13 ft 21 kts 150°
2026-05-06 21:53 40.77289 -73.86123 13 ft 20 kts 131°
2026-05-06 21:53 40.77176 -73.86093 14 ft 15 kts 173°
2026-05-06 21:54 40.77110 -73.86076 19 ft 10 kts 130°
2026-05-06 21:54 40.77068 -73.85998 21 ft 11 kts 123°
2026-05-06 21:54 40.77006 -73.85936 20 ft 12 kts 165°
2026-05-06 21:54 40.76933 -73.85978 20 ft 11 kts 261°
2026-05-06 21:55 40.76954 -73.86018 21 ft 1 kts 315°
2026-05-06 21:55 40.76957 -73.86022 20 ft 0 kts 315°